Date String (YYYY-MM-DD hh:mm:ss) UTC,Instrument flags,absolute air pressure of the measurement (hPa),sample flow rate (lpm),inlet stack bypass flow (lpm),air temperature of the measurement (°C),ambient temperature measured by the external sensor (°C),aerosol sample conditioner tube jacket temperature (°C),OPC LED temperature (°C),internal box temperature (°C),relative humidity of the measurement (%),span deviation,mass concentration of particles derived from Lorenz-Mie calculation of OPC scattering (μg/m³),mass concentration of particles derived from Lorenz-Mie calculation of OPC scattering (μg/m³),mass concentration of particles derived from Lorenz-Mie calculation of OPC scattering (μg/m³)
DateTimeUTC,F1_M11,P_M11,Q1_M11,Q2_M11,T1_M11,T2_M11,T3_M11,T4_M11,T5_M11,U1_M11,ZSPAN_M11,X2_M11,X0_M11,X1_M11
2024-02-09 07:00:00,SystemResetWarning,0821.1,4.99,000.00,018.3,017.5,000.0,026.9,020.0,19.4,0000.0,0002.06,0006.65,0001.69
2024-02-09 07:01:00,SystemResetWarning,0821.1,4.99,000.00,018.3,017.5,000.0,026.9,020.0,19.3,0000.0,0002.09,0005.72,0001.70
2024-02-09 07:02:00,SystemResetWarning,0821.1,5.00,000.00,018.3,017.5,000.0,026.9,020.0,19.0,0000.0,0002.09,0005.11,0001.72
2024-02-09 07:03:00,SystemResetWarning,0821.1,4.99,000.00,018.3,017.5,000.0,026.9,020.0,18.3,0000.0,0002.10,0004.78,0001.73
2024-02-09 07:04:00,SystemResetWarning,0821.1,5.01,000.00,018.3,017.5,000.0,026.9,020.0,18.5,0000.0,0002.12,0004.53,0001.74
2024-02-09 07:05:00,SystemResetWarning,0821.1,5.01,000.00,018.3,017.5,000.0,026.9,020.0,18.0,0000.0,0002.16,0004.60,0001.76
2024-02-09 07:06:00,SystemResetWarning,0821.1,5.00,000.00,018.3,017.5,000.0,026.9,020.0,18.4,0000.0,0002.17,0004.68,0001.76
2024-02-09 07:07:00,SystemResetWarning,0821.0,4.98,000.00,018.3,017.5,000.0,026.9,020.0,18.3,0000.0,0002.16,0004.61,0001.75
2024-02-09 07:08:00,SystemResetWarning,0821.1,5.00,000.00,018.3,017.5,000.0,026.8,020.0,18.6,0000.0,0002.18,0004.63,0001.75
2024-02-09 07:09:00,SystemResetWarning,0821.0,5.02,000.00,018.3,017.5,000.0,026.8,020.0,18.7,0000.0,0002.12,0003.65,0001.72
2024-02-09 07:10:00,SystemResetWarning,0821.0,4.98,000.00,018.3,017.5,000.0,026.8,020.0,18.4,0000.0,0002.09,0003.69,0001.71
2024-02-09 07:11:00,SystemResetWarning,0821.2,5.00,000.00,018.3,017.5,000.0,026.8,020.0,18.3,0000.0,0002.07,0003.99,0001.69
2024-02-09 07:12:00,SystemResetWarning,0821.1,5.00,000.00,018.3,017.5,000.0,026.8,020.0,18.4,0000.0,0002.06,0005.01,0001.69
2024-02-09 07:13:00,SystemResetWarning,0821.0,5.01,000.00,018.3,017.5,000.0,026.8,020.0,18.6,0000.0,0002.03,0004.92,0001.68
2024-02-09 07:14:00,SystemResetWarning,0821.3,5.00,000.00,018.3,017.6,000.0,026.8,020.0,18.5,0000.0,0002.00,0004.81,0001.66
2024-02-09 07:15:00,SystemResetWarning,0821.0,5.01,000.00,018.3,017.6,000.0,026.8,020.0,18.4,0000.0,0002.00,0004.79,0001.65
2024-02-09 07:16:00,SystemResetWarning,0821.1,4.99,000.00,018.3,017.6,000.0,026.8,020.0,18.4,0000.0,0001.99,0004.76,0001.63
2024-02-09 07:17:00,SystemResetWarning,0821.0,5.00,000.00,018.3,017.6,000.0,026.8,020.0,18.3,0000.0,0001.99,0005.58,0001.64
2024-02-09 07:18:00,SystemResetWarning,0821.1,5.00,000.00,018.3,017.6,000.0,026.8,020.0,18.3,0000.0,0002.02,0006.13,0001.67
2024-02-09 07:19:00,SystemResetWarning,0821.1,5.00,000.00,018.3,017.6,000.0,026.8,020.0,18.4,0000.0,0002.01,0006.23,0001.67
2024-02-09 07:20:00,SystemResetWarning,0821.1,5.00,000.00,018.3,017.6,000.0,026.8,020.0,18.5,0000.0,0002.03,0006.86,0001.70
2024-02-09 07:21:00,SystemResetWarning,0821.1,5.01,000.00,018.3,017.6,000.0,026.8,020.0,18.6,0000.0,0002.03,0007.36,0001.70
2024-02-09 07:22:00,SystemResetWarning,0821.1,5.00,000.00,018.3,017.6,000.0,026.8,020.0,18.4,0000.0,0002.03,0007.08,0001.71
2024-02-09 07:23:00,SystemResetWarning,0821.1,5.00,000.00,018.3,017.6,000.0,026.8,020.0,18.0,0000.0,0002.04,0006.18,0001.70
2024-02-09 07:24:00,SystemResetWarning,0821.1,5.00,000.00,018.3,017.6,000.0,026.8,020.0,18.2,0000.0,0002.11,0007.34,0001.72
2024-02-09 07:25:00,SystemResetWarning,0821.1,4.99,000.00,018.3,017.6,000.0,026.8,020.0,18.0,0000.0,0002.16,0007.45,0001.75
2024-02-09 07:26:00,SystemResetWarning,0821.1,5.01,000.00,018.3,017.6,000.0,026.8,020.0,18.1,0000.0,0002.18,0007.53,0001.77
2024-02-09 07:27:00,SystemResetWarning,0821.0,5.00,000.00,018.3,017.6,000.0,026.8,020.0,18.3,0000.0,0002.20,0007.61,0001.77
2024-02-09 07:28:00,SystemResetWarning,0821.2,5.01,000.00,018.3,017.6,000.0,026.8,020.0,18.5,0000.0,0002.21,0007.14,0001.76
2024-02-09 07:29:00,SystemResetWarning,0821.1,5.00,000.00,018.3,017.6,000.0,026.8,020.0,18.7,0000.0,0002.22,0006.79,0001.75
2024-02-09 07:30:00,SystemResetWarning,0821.0,4.99,000.00,018.3,017.6,000.0,026.8,020.0,18.8,0000.0,0002.21,0007.37,0001.75
2024-02-09 07:31:00,SystemResetWarning,0821.0,4.99,000.00,018.3,017.6,000.0,026.8,020.0,18.8,0000.0,0002.27,0007.15,0001.76
2024-02-09 07:32:00,SystemResetWarning,0821.1,5.00,000.00,018.3,017.6,000.0,026.8,020.0,18.8,0000.0,0002.31,0006.34,0001.79
2024-02-09 07:33:00,SystemResetWarning,0821.2,5.02,000.00,018.3,017.6,000.0,026.8,020.0,18.8,0000.0,0002.34,0006.37,0001.81
2024-02-09 07:34:00,SystemResetWarning,0821.3,5.01,000.00,018.3,017.6,000.0,026.8,020.0,18.7,0000.0,0002.39,0006.38,0001.84
2024-02-09 07:35:00,SystemResetWarning,0821.4,4.99,000.00,018.3,017.6,000.0,026.8,020.0,18.7,0000.0,0002.46,0006.45,0001.86
2024-02-09 07:36:00,SystemResetWarning,0821.5,5.00,000.00,018.3,017.6,000.0,026.8,020.0,18.8,0000.0,0002.45,0006.93,0001.87
2024-02-09 07:37:00,SystemResetWarning,0821.3,4.99,000.00,018.3,017.6,000.0,026.8,020.0,18.8,0000.0,0002.45,0006.79,0001.90
2024-02-09 07:38:00,SystemResetWarning,0821.3,5.00,000.00,018.3,017.6,000.0,026.8,020.0,18.8,0000.0,0002.46,0006.68,0001.93
2024-02-09 07:39:00,SystemResetWarning,0821.0,5.00,000.00,018.3,017.6,000.0,026.8,020.0,18.6,0000.0,0002.48,0006.61,0001.97
2024-02-09 07:40:00,SystemResetWarning,0821.0,5.00,000.00,018.3,017.5,000.0,026.8,020.0,18.6,0000.0,0002.54,0006.76,0002.02
2024-02-09 07:41:00,SystemResetWarning,0821.1,5.00,000.00,018.3,017.5,000.0,026.8,020.0,18.5,0000.0,0002.59,0007.10,0002.06
2024-02-09 07:42:00,SystemResetWarning,0821.1,5.00,000.00,018.3,017.5,000.0,026.8,020.0,18.6,0000.0,0002.64,0006.81,0002.09
2024-02-09 07:43:00,SystemResetWarning,0821.1,5.00,000.00,018.3,017.5,000.0,026.8,020.0,18.6,0000.0,0002.69,0006.91,0002.12
2024-02-09 07:44:00,SystemResetWarning,0821.1,5.00,000.00,018.3,017.5,000.0,026.8,020.0,18.5,0000.0,0002.73,0006.98,0002.13
2024-02-09 07:45:00,SystemResetWarning,0821.1,5.00,000.00,018.3,017.5,000.0,026.8,020.0,18.4,0000.0,0002.73,0007.05,0002.13
2024-02-09 07:46:00,SystemResetWarning,0821.1,5.00,000.00,018.3,017.5,000.0,026.8,020.0,18.4,0000.0,0002.67,0007.18,0002.12
2024-02-09 07:47:00,SystemResetWarning,0821.1,5.00,000.00,018.3,017.5,000.0,026.8,020.0,18.3,0000.0,0002.64,0006.73,0002.11
2024-02-09 07:48:00,SystemResetWarning,0821.1,5.00,000.00,018.3,017.5,000.0,026.8,020.0,18.2,0000.0,0002.70,0007.35,0002.11
2024-02-09 07:49:00,SystemResetWarning,0821.1,5.00,000.00,018.3,017.5,000.0,026.8,020.0,18.2,0000.0,0002.69,0007.35,0002.10
2024-02-09 07:50:00,SystemResetWarning,0821.1,5.00,000.00,018.3,017.5,000.0,026.8,020.0,17.7,0000.0,0002.68,0007.34,0002.10
2024-02-09 07:51:00,SystemResetWarning,0821.0,5.00,000.00,018.3,017.5,000.0,026.8,020.0,17.8,0000.0,0002.66,0007.22,0002.09
2024-02-09 07:52:00,SystemResetWarning,0821.1,5.00,000.00,018.3,017.5,000.0,026.8,020.0,17.6,0000.0,0002.63,0006.71,0002.09
2024-02-09 07:53:00,SystemResetWarning,0821.1,5.00,000.00,018.3,017.5,000.0,026.8,020.0,17.5,0000.0,0002.59,0006.29,0002.09
2024-02-09 07:54:00,SystemResetWarning,0821.1,4.99,000.00,018.2,017.5,000.0,026.8,020.0,16.8,0000.0,0002.54,0006.17,0002.07
2024-02-09 07:55:00,SystemResetWarning,0821.1,5.00,000.00,018.2,017.5,000.0,026.8,020.0,16.4,0000.0,0002.50,0006.11,0002.05
2024-02-09 07:56:00,SystemResetWarning,0821.1,5.00,000.00,018.2,017.5,000.0,026.8,020.0,16.1,0000.0,0002.49,0006.22,0002.05
2024-02-09 07:57:00,SystemResetWarning,0821.1,5.01,000.00,018.2,017.5,000.0,026.8,020.0,16.2,0000.0,0002.46,0005.84,0002.05
2024-02-09 07:58:00,SystemResetWarning,0821.1,5.00,000.00,018.2,017.5,000.0,026.8,020.0,16.2,0000.0,0002.42,0005.18,0002.03
2024-02-09 07:59:00,SystemResetWarning,0821.1,4.99,000.00,018.3,017.5,000.0,026.8,020.0,16.0,0000.0,0002.32,0003.81,0001.98
